sat.trackr.live / text

‹ back to catalog

STARLINK-4206

NORAD 52847 · 2022-062T

PAYLOAD ACTIVE UNKNOWN

§ Identity

Operator
Country
US
Launch date
2022-06-17
Launch site
AFETR
Launch vehicle
Mass (kg)
RCS (m²)

Purposes: comms

External: N2YO · Heavens-Above · Gunter

§ Orbital elements

Epoch: 2026-05-25T00:31:29.110944Z

Period
95.44 min
Inclination
53.2147°
Eccentricity
0.0001322
Mean motion
15.08839514 rev/d
Perigee alt
538.8 km
Apogee alt
540.7 km
Semi-major
6,917.9 km
B*
3.6537e-5
RAAN
51.4502°
Arg perigee
90.5974°
Mean anomaly
269.5170°
Rev number
21,731

§ Raw data

STARLINK-42061 52847U 22062T   26145.02186471  .00000294  00000+0  36537-4 0  99972 52847  53.2147  51.4502 0001322  90.5974 269.5170 15.08839514217317

JSON: /api/v1/satellites/52847 · /tle

For live sub-satellite position, see the globe view (requires WebGL).

§ Visibility from observer

Set your observer location to see the next 7 days of passes ≥ 10°. The values pass through the URL so the page stays shareable.

No JS? Fill the form by hand. The geolocation button needs JavaScript.